Volver al catálogo

BREEZE-M DEB

ActivoHEO
NORAD 38610·DEBRIS·🇷🇺 Russia

Lanzado Mar 14, 2008 desde Baikonur Cosmodrome

Loading…

Próximos Pases (próximas 24 horas)

TLE

ActualizadoSource: Space-Track

Época: Sep 14, 2026, 05:33 UTC

1 38610U 08011BH  26257.23136168 -.00000104  00000-0  00000-0 0  9996
2 38610  49.3097  25.1894 6361634 207.5960  95.2839  3.05984843174630

Sigue BREEZE-M DEB en tiempo real con AllMySat

Download on the App Store